| time (UTC) | temp F | wind direction | speed MPH | gust MPH | rain 1hr in | rain 24hr in | rain mn in | humidity % | barometer mb |
| 20260508141923 | 43 | 266 | 0.0 | 4.0 | 0.00 | 0.00 | 0.00 | 58 | 1008.6 |
| 20260508141426 | 43 | 265 | 0.0 | 4.0 | 0.00 | 0.00 | 0.00 | 60 | 1008.6 |
| 20260508140923 | 43 | 225 | 0.0 | 2.0 | 0.00 | 0.00 | 0.00 | 61 | 1008.7 |
| 20260508140426 | 43 | 224 | 0.0 | 5.0 | 0.00 | 0.00 | 0.00 | 63 | 1008.7 |
| 20260508135922 | 43 | 275 | 0.0 | 3.0 | 0.00 | 0.00 | 0.00 | 63 | 1008.6 |
| 20260508135426 | 43 | 242 | 0.0 | 2.0 | 0.00 | 0.00 | 0.00 | 65 | 1008.7 |
| 20260508134922 | 43 | 242 | 0.0 | 5.0 | 0.00 | 0.00 | 0.00 | 62 | 1008.7 |
| 20260508134425 | 43 | 222 | 1.0 | 1.0 | 0.00 | 0.00 | 0.00 | 64 | 1008.8 |
| 20260508133922 | 43 | 222 | 0.0 | 3.0 | 0.00 | 0.00 | 0.00 | 63 | 1008.7 |
| 20260508133425 | 43 | 220 | 0.0 | 5.0 | 0.00 | 0.00 | 0.00 | 63 | 1008.7 |
| 20260508132923 | 42 | 216 | 0.0 | 3.0 | 0.00 | 0.00 | 0.00 | 64 | 1008.7 |
| 20260508132424 | 42 | 216 | 0.0 | 2.0 | 0.00 | 0.00 | 0.00 | 65 | 1008.7 |
| 20260508131925 | 42 | 216 | 0.0 | 5.0 | 0.00 | 0.00 | 0.00 | 64 | 1008.6 |
| 20260508131422 | 42 | 222 | 0.0 | 4.0 | 0.00 | 0.00 | 0.00 | 65 | 1008.7 |
| 20260508130923 | 42 | 210 | 0.0 | 3.0 | 0.00 | 0.00 | 0.00 | 66 | 1008.6 |
| 20260508130425 | 42 | 213 | 0.0 | 1.0 | 0.00 | 0.00 | 0.00 | 67 | 1008.7 |
| 20260508125925 | 42 | 213 | 0.0 | 1.0 | 0.00 | 0.00 | 0.00 | 68 | 1008.6 |
| 20260508125425 | 42 | 212 | 0.0 | 4.0 | 0.00 | 0.00 | 0.00 | 68 | 1008.6 |
| 20260508124923 | 42 | 214 | 2.0 | 4.0 | 0.00 | 0.00 | 0.00 | 68 | 1008.6 |
| 20260508124425 | 42 | 203 | 0.0 | 2.0 | 0.00 | 0.00 | 0.00 | 70 | 1008.5 |
| 20260508123928 | 41 | 203 | 0.0 | 2.0 | 0.00 | 0.00 | 0.00 | 69 | 1008.5 |
| 20260508123432 | 41 | 203 | 0.0 | 1.0 | 0.00 | 0.00 | 0.00 | 69 | 1008.5 |
| 20260508122922 | 41 | 203 | 0.0 | 1.0 | 0.00 | 0.00 | 0.00 | 69 | 1008.5 |
| 20260508122422 | 41 | 203 | 0.0 | 0.0 | 0.00 | 0.00 | 0.00 | 69 | 1008.4 |
| 20260508121923 | 41 | 203 | 0.0 | 2.0 | 0.00 | 0.00 | 0.00 | 70 | 1008.4 |
| 20260508121422 | 41 | 203 | 0.0 | 0.0 | 0.00 | 0.00 | 0.00 | 73 | 1008.3 |
| 20260508120931 | 40 | 203 | 0.0 | 3.0 | 0.00 | 0.00 | 0.00 | 72 | 1008.3 |
| 20260508120425 | 40 | 203 | 0.0 | 0.0 | 0.00 | 0.00 | 0.00 | 75 | 1008.3 |
| 20260508115922 | 40 | 203 | 0.0 | 0.0 | 0.00 | 0.00 | 0.00 | 78 | 1008.3 |
| 20260508115422 | 39 | 203 | 0.0 | 0.0 | 0.00 | 0.00 | 0.00 | 82 | 1008.2 |
| 20260508114928 | 39 | 203 | 0.0 | 0.0 | 0.00 | 0.00 | 0.00 | 82 | 1008.2 |
| 20260508114422 | 38 | 203 | 0.0 | 0.0 | 0.00 | 0.00 | 0.00 | 82 | 1008.1 |
| 20260508113928 | 38 | 203 | 0.0 | 0.0 | 0.00 | 0.00 | 0.00 | 83 | 1008.1 |
| 20260508113423 | 37 | 203 | 0.0 | 2.0 | 0.00 | 0.00 | 0.00 | 83 | 1008.0 |
| 20260508112925 | 37 | 203 | 0.0 | 1.0 | 0.00 | 0.00 | 0.00 | 85 | 1008.0 |
| 20260508112425 | 37 | 203 | 0.0 | 0.0 | 0.00 | 0.00 | 0.00 | 85 | 1007.9 |
| 20260508111922 | 37 | 203 | 0.0 | 0.0 | 0.00 | 0.00 | 0.00 | 86 | 1007.9 |
| 20260508111422 | 36 | 203 | 0.0 | 0.0 | 0.00 | 0.00 | 0.00 | 87 | 1007.8 |
| 20260508110931 | 36 | 203 | 0.0 | 0.0 | 0.00 | 0.00 | 0.00 | 86 | 1007.8 |
| 20260508110422 | 35 | 203 | 0.0 | 0.0 | 0.00 | 0.00 | 0.00 | 86 | 1007.7 |
| 20260508105928 | 35 | 203 | 0.0 | 0.0 | 0.00 | 0.00 | 0.00 | 86 | 1007.7 |
| 20260508105428 | 35 | 203 | 0.0 | 0.0 | 0.00 | 0.00 | 0.00 | 86 | 1007.7 |
| 20260508104931 | 35 | 203 | 0.0 | 0.0 | 0.00 | 0.00 | 0.00 | 86 | 1007.6 |
| 20260508104425 | 35 | 203 | 0.0 | 0.0 | 0.00 | 0.00 | 0.00 | 86 | 1007.6 |
| 20260508103925 | 35 | 203 | 0.0 | 0.0 | 0.00 | 0.00 | 0.00 | 86 | 1007.6 |
| 20260508103425 | 35 | 203 | 0.0 | 0.0 | 0.00 | 0.00 | 0.00 | 86 | 1007.6 |
| 20260508102925 | 34 | 231 | 0.0 | 0.0 | 0.00 | 0.00 | 0.00 | 86 | 1007.5 |
| 20260508102424 | 34 | 231 | 0.0 | 0.0 | 0.00 | 0.00 | 0.00 | 85 | 1007.5 |
| 20260508101925 | 34 | 231 | 0.0 | 0.0 | 0.00 | 0.00 | 0.00 | 85 | 1007.4 |
| 20260508101422 | 34 | 230 | 0.0 | 0.0 | 0.00 | 0.00 | 0.00 | 85 | 1007.4 |
| 20260508100921 | 34 | 231 | 0.0 | 0.0 | 0.00 | 0.00 | 0.00 | 85 | 1007.3 |
| 20260508100427 | 34 | 231 | 0.0 | 0.0 | 0.00 | 0.00 | 0.00 | 85 | 1007.1 |
| 20260508095923 | 34 | 231 | 0.0 | 1.0 | 0.00 | 0.00 | 0.00 | 85 | 1007.1 |
| 20260508095421 | 33 | 231 | 0.0 | 0.0 | 0.00 | 0.00 | 0.00 | 86 | 1007.2 |
| 20260508094925 | 33 | 231 | 0.0 | 0.0 | 0.00 | 0.00 | 0.00 | 86 | 1007.2 |
| 20260508094422 | 33 | 230 | 0.0 | 0.0 | 0.00 | 0.00 | 0.00 | 85 | 1007.1 |
| 20260508093925 | 33 | 231 | 0.0 | 0.0 | 0.00 | 0.00 | 0.00 | 85 | 1007.2 |
| 20260508093424 | 33 | 231 | 0.0 | 0.0 | 0.00 | 0.00 | 0.00 | 85 | 1007.1 |
| 20260508092924 | 33 | 231 | 0.0 | 0.0 | 0.00 | 0.00 | 0.00 | 84 | 1007.1 |
| 20260508092421 | 33 | 231 | 0.0 | 0.0 | 0.00 | 0.00 | 0.00 | 84 | 1007.1 |
| 20260508091921 | 33 | 231 | 0.0 | 0.0 | 0.00 | 0.00 | 0.00 | 84 | 1007.1 |
| 20260508091421 | 33 | 231 | 0.0 | 0.0 | 0.00 | 0.00 | 0.00 | 84 | 1007.1 |
| 20260508090921 | 33 | 231 | 0.0 | 0.0 | 0.00 | 0.00 | 0.00 | 84 | 1007.1 |
| 20260508090424 | 33 | 231 | 0.0 | 0.0 | 0.00 | 0.00 | 0.00 | 84 | 1007.1 |
| 20260508085921 | 33 | 230 | 0.0 | 0.0 | 0.00 | 0.00 | 0.00 | 84 | 1007.2 |
| 20260508085424 | 33 | 231 | 0.0 | 0.0 | 0.00 | 0.00 | 0.00 | 84 | 1007.2 |
| 20260508084928 | 33 | 231 | 0.0 | 0.0 | 0.00 | 0.00 | 0.00 | 83 | 1007.2 |
| 20260508084421 | 33 | 231 | 0.0 | 0.0 | 0.00 | 0.00 | 0.00 | 83 | 1007.2 |
| 20260508083921 | 33 | 231 | 0.0 | 0.0 | 0.00 | 0.00 | 0.00 | 83 | 1007.1 |
| 20260508083421 | 33 | 231 | 0.0 | 0.0 | 0.00 | 0.00 | 0.00 | 82 | 1007.1 |
| 20260508082921 | 33 | 231 | 0.0 | 0.0 | 0.00 | 0.00 | 0.00 | 82 | 1007.2 |
| 20260508082421 | 33 | 231 | 0.0 | 0.0 | 0.00 | 0.00 | 0.00 | 83 | 1007.2 |
| 20260508081921 | 34 | 230 | 0.0 | 0.0 | 0.00 | 0.00 | 0.00 | 83 | 1007.2 |
| 20260508081424 | 34 | 231 | 0.0 | 0.0 | 0.00 | 0.00 | 0.00 | 83 | 1007.2 |
| 20260508080928 | 33 | 231 | 0.0 | 0.0 | 0.00 | 0.00 | 0.00 | 83 | 1007.2 |
| 20260508080424 | 34 | 231 | 0.0 | 0.0 | 0.00 | 0.00 | 0.00 | 82 | 1007.2 |
| 20260508075925 | 34 | 231 | 0.0 | 0.0 | 0.00 | 0.00 | 0.00 | 82 | 1007.1 |
| 20260508075424 | 34 | 231 | 0.0 | 0.0 | 0.00 | 0.00 | 0.00 | 82 | 1007.1 |
| 20260508074927 | 34 | 231 | 0.0 | 0.0 | 0.00 | 0.00 | 0.00 | 82 | 1007.1 |
| 20260508074424 | 34 | 231 | 0.0 | 0.0 | 0.00 | 0.00 | 0.00 | 81 | 1007.0 |
| 20260508073921 | 34 | 231 | 0.0 | 0.0 | 0.00 | 0.00 | 0.00 | 81 | 1007.0 |
| 20260508073421 | 34 | 231 | 0.0 | 0.0 | 0.00 | 0.00 | 0.00 | 81 | 1007.0 |
| 20260508072921 | 34 | 231 | 0.0 | 0.0 | 0.00 | 0.00 | 0.00 | 80 | 1007.0 |
| 20260508072422 | 34 | 231 | 0.0 | 0.0 | 0.00 | 0.00 | 0.00 | 80 | 1007.0 |
| 20260508071921 | 35 | 231 | 0.0 | 0.0 | 0.00 | 0.00 | 0.00 | 80 | 1007.0 |
| 20260508071425 | 35 | 231 | 0.0 | 0.0 | 0.00 | 0.00 | 0.00 | 81 | 1007.0 |
| 20260508070921 | 35 | 231 | 0.0 | 0.0 | 0.00 | 0.00 | 0.00 | 80 | 1007.0 |
| 20260508070422 | 35 | 231 | 0.0 | 0.0 | 0.00 | 0.00 | 0.00 | 80 | 1007.0 |
| 20260508065921 | 35 | 231 | 0.0 | 0.0 | 0.00 | 0.00 | 0.00 | 80 | 1007.1 |
| 20260508065424 | 35 | 231 | 0.0 | 0.0 | 0.00 | 0.00 | 0.00 | 80 | 1007.1 |
| 20260508064921 | 35 | 231 | 0.0 | 0.0 | 0.00 | 0.00 | 0.00 | 80 | 1007.1 |
| 20260508064424 | 35 | 230 | 0.0 | 0.0 | 0.00 | 0.00 | 0.00 | 80 | 1007.1 |
| 20260508063927 | 35 | 231 | 0.0 | 0.0 | 0.00 | 0.00 | 0.00 | 79 | 1007.2 |
| 20260508063421 | 35 | 231 | 0.0 | 0.0 | 0.00 | 0.00 | 0.00 | 79 | 1007.2 |
| 20260508062921 | 36 | 231 | 0.0 | 0.0 | 0.00 | 0.00 | 0.00 | 78 | 1007.1 |
| 20260508062422 | 36 | 231 | 0.0 | 0.0 | 0.00 | 0.00 | 0.00 | 78 | 1007.1 |
| 20260508061923 | 36 | 231 | 0.0 | 0.0 | 0.00 | 0.00 | 0.00 | 77 | 1007.1 |
| 20260508061421 | 37 | 231 | 0.0 | 0.0 | 0.00 | 0.00 | 0.00 | 76 | 1007.1 |
| 20260508060927 | 37 | 231 | 0.0 | 0.0 | 0.00 | 0.00 | 0.00 | 76 | 1007.2 |
| 20260508060424 | 37 | 231 | 0.0 | 0.0 | 0.00 | 0.00 | 0.00 | 76 | 1007.2 |
| 20260508055923 | 37 | 231 | 0.0 | 0.0 | 0.00 | 0.00 | 0.00 | 76 | 1007.1 |
| 20260508055421 | 37 | 231 | 0.0 | 0.0 | 0.00 | 0.00 | 0.00 | 76 | 1007.2 |
| 20260508054920 | 37 | 231 | 0.0 | 0.0 | 0.00 | 0.00 | 0.00 | 76 | 1007.3 |
| 20260508054420 | 38 | 231 | 0.0 | 0.0 | 0.00 | 0.00 | 0.00 | 76 | 1007.3 |
| 20260508053924 | 38 | 231 | 0.0 | 0.0 | 0.00 | 0.00 | 0.00 | 76 | 1007.3 |
| 20260508053427 | 38 | 231 | 0.0 | 0.0 | 0.00 | 0.00 | 0.00 | 76 | 1007.3 |
| 20260508052920 | 38 | 231 | 0.0 | 0.0 | 0.00 | 0.00 | 0.00 | 76 | 1007.4 |
| 20260508052422 | 38 | 231 | 0.0 | 0.0 | 0.00 | 0.00 | 0.00 | 75 | 1007.4 |
| 20260508051920 | 38 | 231 | 0.0 | 0.0 | 0.00 | 0.00 | 0.00 | 75 | 1007.4 |
| 20260508051424 | 38 | 231 | 0.0 | 0.0 | 0.00 | 0.00 | 0.00 | 75 | 1007.5 |
| 20260508050928 | 38 | 231 | 0.0 | 0.0 | 0.00 | 0.00 | 0.00 | 76 | 1007.5 |
| 20260508050423 | 38 | 231 | 0.0 | 0.0 | 0.00 | 0.00 | 0.00 | 75 | 1007.5 |
| 20260508045920 | 38 | 231 | 0.0 | 0.0 | 0.00 | 0.00 | 0.00 | 75 | 1007.6 |
| 20260508045425 | 38 | 231 | 0.0 | 0.0 | 0.00 | 0.00 | 0.00 | 74 | 1007.6 |
| 20260508044926 | 38 | 231 | 0.0 | 0.0 | 0.00 | 0.00 | 0.00 | 74 | 1007.6 |
| 20260508044421 | 39 | 231 | 0.0 | 0.0 | 0.00 | 0.00 | 0.00 | 74 | 1007.7 |
| 20260508043920 | 39 | 231 | 0.0 | 0.0 | 0.00 | 0.00 | 0.00 | 74 | 1007.6 |
| 20260508043423 | 39 | 231 | 0.0 | 0.0 | 0.00 | 0.00 | 0.00 | 74 | 1007.7 |
| 20260508042920 | 39 | 231 | 0.0 | 0.0 | 0.00 | 0.00 | 0.00 | 75 | 1007.7 |
| 20260508042420 | 39 | 231 | 0.0 | 0.0 | 0.00 | 0.00 | 0.00 | 75 | 1007.8 |
| 20260508041923 | 39 | 231 | 0.0 | 0.0 | 0.00 | 0.00 | 0.00 | 75 | 1007.7 |
| 20260508041423 | 39 | 231 | 0.0 | 0.0 | 0.00 | 0.00 | 0.00 | 74 | 1007.7 |
| 20260508040923 | 38 | 231 | 0.0 | 0.0 | 0.00 | 0.00 | 0.00 | 74 | 1007.7 |
| 20260508040420 | 38 | 230 | 0.0 | 0.0 | 0.00 | 0.00 | 0.00 | 75 | 1007.7 |
| 20260508035923 | 38 | 231 | 0.0 | 0.0 | 0.00 | 0.00 | 0.00 | 75 | 1007.6 |
| 20260508035427 | 38 | 231 | 0.0 | 0.0 | 0.00 | 0.00 | 0.00 | 77 | 1007.6 |
| 20260508034926 | 39 | 230 | 0.0 | 0.0 | 0.00 | 0.00 | 0.00 | 77 | 1007.7 |
| 20260508034420 | 39 | 231 | 0.0 | 0.0 | 0.00 | 0.00 | 0.00 | 77 | 1007.7 |
| 20260508033921 | 39 | 231 | 0.0 | 0.0 | 0.00 | 0.00 | 0.00 | 76 | 1007.7 |
| 20260508033421 | 39 | 231 | 0.0 | 0.0 | 0.00 | 0.00 | 0.00 | 75 | 1007.7 |
| 20260508032927 | 39 | 231 | 0.0 | 0.0 | 0.00 | 0.00 | 0.00 | 73 | 1007.6 |
| 20260508032420 | 39 | 231 | 0.0 | 0.0 | 0.00 | 0.00 | 0.00 | 73 | 1007.7 |
| 20260508031920 | 38 | 231 | 0.0 | 0.0 | 0.00 | 0.00 | 0.00 | 74 | 1007.7 |
| 20260508031424 | 38 | 231 | 0.0 | 0.0 | 0.00 | 0.00 | 0.00 | 73 | 1007.7 |
| 20260508030923 | 38 | 231 | 0.0 | 0.0 | 0.00 | 0.00 | 0.00 | 74 | 1007.7 |
| 20260508030423 | 38 | 231 | 0.0 | 0.0 | 0.00 | 0.00 | 0.00 | 72 | 1007.6 |
| 20260508025923 | 38 | 230 | 0.0 | 0.0 | 0.00 | 0.00 | 0.00 | 71 | 1007.7 |
| 20260508025424 | 38 | 231 | 0.0 | 0.0 | 0.00 | 0.00 | 0.00 | 71 | 1007.8 |
| 20260508024920 | 38 | 231 | 0.0 | 0.0 | 0.00 | 0.00 | 0.00 | 70 | 1007.7 |
| 20260508024423 | 39 | 231 | 0.0 | 0.0 | 0.00 | 0.00 | 0.00 | 70 | 1007.7 |
| 20260508023920 | 39 | 231 | 0.0 | 0.0 | 0.00 | 0.00 | 0.00 | 69 | 1007.7 |
| 20260508023426 | 39 | 230 | 0.0 | 0.0 | 0.00 | 0.00 | 0.00 | 69 | 1007.7 |
| 20260508022921 | 39 | 230 | 0.0 | 0.0 | 0.00 | 0.00 | 0.00 | 69 | 1007.8 |
| 20260508022426 | 39 | 231 | 0.0 | 0.0 | 0.00 | 0.00 | 0.00 | 69 | 1007.8 |
| 20260508021924 | 39 | 231 | 0.0 | 0.0 | 0.00 | 0.00 | 0.00 | 69 | 1007.7 |
| 20260508021426 | 39 | 231 | 0.0 | 0.0 | 0.00 | 0.00 | 0.00 | 68 | 1007.7 |
| 20260508020926 | 39 | 231 | 0.0 | 0.0 | 0.00 | 0.00 | 0.00 | 68 | 1007.7 |
| 20260508020422 | 39 | 231 | 0.0 | 0.0 | 0.00 | 0.00 | 0.00 | 68 | 1007.6 |
| 20260508015923 | 40 | 230 | 0.0 | 0.0 | 0.00 | 0.00 | 0.00 | 67 | 1007.6 |
| 20260508015419 | 40 | 231 | 0.0 | 0.0 | 0.00 | 0.00 | 0.00 | 68 | 1007.6 |
| 20260508014923 | 40 | 231 | 0.0 | 0.0 | 0.00 | 0.00 | 0.00 | 66 | 1007.6 |
| 20260508014420 | 40 | 231 | 0.0 | 0.0 | 0.00 | 0.00 | 0.00 | 69 | 1007.5 |
| 20260508013919 | 40 | 231 | 0.0 | 0.0 | 0.00 | 0.00 | 0.00 | 68 | 1007.5 |
| 20260508013419 | 40 | 231 | 0.0 | 0.0 | 0.00 | 0.00 | 0.00 | 65 | 1007.5 |
| 20260508012919 | 40 | 231 | 0.0 | 0.0 | 0.00 | 0.00 | 0.00 | 64 | 1007.5 |
| 20260508012423 | 41 | 231 | 0.0 | 0.0 | 0.00 | 0.00 | 0.00 | 64 | 1007.5 |
| 20260508011922 | 41 | 231 | 0.0 | 0.0 | 0.00 | 0.00 | 0.00 | 62 | 1007.3 |
| 20260508011419 | 41 | 231 | 0.0 | 0.0 | 0.00 | 0.00 | 0.00 | 62 | 1007.3 |
| 20260508010922 | 41 | 231 | 0.0 | 0.0 | 0.00 | 0.00 | 0.00 | 63 | 1007.3 |
| 20260508010422 | 41 | 231 | 0.0 | 0.0 | 0.00 | 0.00 | 0.00 | 64 | 1007.3 |
| 20260508005922 | 42 | 231 | 0.0 | 0.0 | 0.00 | 0.00 | 0.00 | 62 | 1007.3 |
| 20260508005419 | 42 | 231 | 0.0 | 0.0 | 0.00 | 0.00 | 0.00 | 62 | 1007.2 |
| 20260508004922 | 42 | 231 | 0.0 | 0.0 | 0.00 | 0.00 | 0.00 | 62 | 1007.2 |
| 20260508004420 | 42 | 231 | 0.0 | 0.0 | 0.00 | 0.00 | 0.00 | 61 | 1007.1 |
| 20260508003922 | 43 | 231 | 0.0 | 0.0 | 0.00 | 0.00 | 0.00 | 60 | 1007.1 |
| 20260508003420 | 43 | 230 | 0.0 | 0.0 | 0.00 | 0.00 | 0.00 | 58 | 1007.0 |
| 20260508002920 | 43 | 231 | 0.0 | 0.0 | 0.00 | 0.00 | 0.00 | 56 | 1007.0 |
| 20260508002428 | 44 | 231 | 0.0 | 0.0 | 0.00 | 0.00 | 0.00 | 58 | 1007.0 |
| 20260508001922 | 44 | 231 | 0.0 | 0.0 | 0.00 | 0.00 | 0.00 | 58 | 1006.9 |
| 20260508001422 | 45 | 231 | 0.0 | 0.0 | 0.00 | 0.00 | 0.00 | 55 | 1006.9 |
| 20260508000920 | 45 | 231 | 0.0 | 0.0 | 0.00 | 0.00 | 0.00 | 52 | 1006.9 |
| 20260508000419 | 46 | 231 | 0.0 | 0.0 | 0.00 | 0.00 | 0.00 | 50 | 1007.0 |
| 20260507235920 | 46 | 231 | 0.0 | 0.0 | 0.00 | 0.00 | 0.00 | 50 | 1006.9 |
| 20260507235419 | 47 | 231 | 0.0 | 0.0 | 0.00 | 0.00 | 0.00 | 46 | 1006.9 |
| 20260507234920 | 47 | 231 | 0.0 | 0.0 | 0.00 | 0.00 | 0.00 | 46 | 1006.8 |
| 20260507234419 | 47 | 231 | 0.0 | 0.0 | 0.00 | 0.00 | 0.00 | 46 | 1006.7 |
| 20260507233925 | 47 | 231 | 0.0 | 1.0 | 0.00 | 0.00 | 0.00 | 47 | 1006.8 |
| 20260507233419 | 47 | 230 | 0.0 | 0.0 | 0.00 | 0.00 | 0.00 | 47 | 1006.8 |
| 20260507232925 | 47 | 230 | 0.0 | 0.0 | 0.00 | 0.00 | 0.00 | 48 | 1006.9 |
| 20260507232419 | 48 | 231 | 0.0 | 0.0 | 0.00 | 0.00 | 0.00 | 49 | 1006.8 |
| 20260507231925 | 48 | 230 | 0.0 | 0.0 | 0.00 | 0.00 | 0.00 | 47 | 1006.8 |
| 20260507231426 | 48 | 231 | 0.0 | 2.0 | 0.00 | 0.00 | 0.00 | 44 | 1006.8 |
| 20260507230929 | 48 | 231 | 2.0 | 1.0 | 0.00 | 0.00 | 0.00 | 48 | 1006.8 |
| 20260507230426 | 49 | 231 | 0.0 | 3.0 | 0.00 | 0.00 | 0.00 | 45 | 1006.8 |
| 20260507225919 | 49 | 230 | 2.0 | 2.0 | 0.00 | 0.00 | 0.00 | 42 | 1006.8 |
| 20260507225419 | 49 | 228 | 0.0 | 2.0 | 0.00 | 0.00 | 0.00 | 42 | 1006.7 |
| 20260507224920 | 49 | 239 | 0.0 | 1.0 | 0.00 | 0.00 | 0.00 | 41 | 1006.8 |
| 20260507224419 | 49 | 237 | 1.0 | 1.0 | 0.00 | 0.00 | 0.00 | 42 | 1006.8 |
| 20260507223922 | 49 | 237 | 0.0 | 3.0 | 0.00 | 0.00 | 0.00 | 43 | 1006.8 |
| 20260507223425 | 49 | 350 | 0.0 | 5.0 | 0.00 | 0.00 | 0.00 | 40 | 1006.8 |
| 20260507222920 | 49 | 272 | 0.0 | 3.0 | 0.00 | 0.00 | 0.00 | 42 | 1006.8 |
| 20260507222422 | 49 | 237 | 0.0 | 2.0 | 0.00 | 0.00 | 0.00 | 41 | 1006.7 |
| 20260507221919 | 49 | 237 | 0.0 | 3.0 | 0.00 | 0.00 | 0.00 | 42 | 1006.8 |
| 20260507221424 | 49 | 235 | 0.0 | 2.0 | 0.00 | 0.00 | 0.00 | 42 | 1006.8 |
| 20260507220924 | 49 | 235 | 2.0 | 3.0 | 0.00 | 0.00 | 0.00 | 43 | 1006.9 |
| 20260507220420 | 49 | 6 | 0.0 | 4.0 | 0.00 | 0.00 | 0.00 | 42 | 1006.8 |
| 20260507215924 | 49 | 338 | 2.0 | 3.0 | 0.00 | 0.00 | 0.00 | 39 | 1006.8 |
| 20260507215418 | 49 | 337 | 2.0 | 8.0 | 0.00 | 0.00 | 0.00 | 40 | 1006.9 |
| 20260507214922 | 49 | 353 | 0.0 | 1.0 | 0.00 | 0.00 | 0.00 | 42 | 1006.9 |
| 20260507214420 | 50 | 353 | 0.0 | 4.0 | 0.00 | 0.00 | 0.00 | 39 | 1006.7 |
| 20260507213924 | 50 | 235 | 1.0 | 2.0 | 0.00 | 0.00 | 0.00 | 40 | 1006.8 |
| 20260507213419 | 50 | 235 | 3.0 | 6.0 | 0.00 | 0.00 | 0.00 | 40 | 1006.7 |
| 20260507212920 | 50 | 316 | 0.0 | 3.0 | 0.00 | 0.00 | 0.00 | 42 | 1006.7 |
| 20260507212425 | 50 | 346 | 0.0 | 5.0 | 0.00 | 0.00 | 0.00 | 40 | 1006.6 |
| 20260507211918 | 51 | 241 | 1.0 | 5.0 | 0.00 | 0.00 | 0.00 | 43 | 1006.6 |
| 20260507211421 | 51 | 330 | 3.0 | 10.0 | 0.00 | 0.00 | 0.00 | 38 | 1006.6 |
| 20260507210918 | 51 | 330 | 3.0 | 6.0 | 0.00 | 0.00 | 0.00 | 39 | 1006.5 |
| 20260507210418 | 50 | 354 | 2.0 | 6.0 | 0.00 | 0.00 | 0.00 | 39 | 1006.6 |
| 20260507205918 | 50 | 296 | 2.0 | 7.0 | 0.00 | 0.00 | 0.00 | 40 | 1006.4 |
| 20260507205421 | 50 | 323 | 1.0 | 6.0 | 0.00 | 0.00 | 0.00 | 41 | 1006.4 |
| 20260507204918 | 50 | 346 | 3.0 | 6.0 | 0.00 | 0.00 | 0.00 | 40 | 1006.3 |
| 20260507204421 | 50 | 335 | 2.0 | 8.0 | 0.00 | 0.00 | 0.00 | 40 | 1006.3 |
| 20260507203919 | 50 | 311 | 3.0 | 7.0 | 0.00 | 0.00 | 0.00 | 40 | 1006.3 |
| 20260507203418 | 50 | 14 | 1.0 | 8.0 | 0.00 | 0.00 | 0.00 | 42 | 1006.3 |
| 20260507202921 | 51 | 330 | 2.0 | 5.0 | 0.00 | 0.00 | 0.00 | 39 | 1006.3 |
| 20260507202424 | 51 | 222 | 3.0 | 6.0 | 0.00 | 0.00 | 0.00 | 41 | 1006.3 |
| 20260507201925 | 51 | 287 | 2.0 | 9.0 | 0.00 | 0.00 | 0.00 | 42 | 1006.3 |
| 20260507201421 | 51 | 277 | 3.0 | 8.0 | 0.00 | 0.00 | 0.00 | 41 | 1006.2 |
| 20260507200924 | 51 | 343 | 3.0 | 8.0 | 0.00 | 0.00 | 0.00 | 38 | 1006.3 |
| 20260507200424 | 51 | 348 | 3.0 | 5.0 | 0.00 | 0.00 | 0.00 | 41 | 1006.3 |
| 20260507195924 | 51 | 300 | 2.0 | 6.0 | 0.00 | 0.00 | 0.00 | 38 | 1006.3 |
| 20260507195421 | 51 | 344 | 1.0 | 6.0 | 0.00 | 0.00 | 0.00 | 38 | 1006.3 |
| 20260507194921 | 52 | 280 | 2.0 | 8.0 | 0.00 | 0.00 | 0.00 | 39 | 1006.3 |
| 20260507194419 | 51 | 352 | 1.0 | 5.0 | 0.00 | 0.00 | 0.00 | 43 | 1006.4 |
| 20260507193921 | 51 | 349 | 1.0 | 4.0 | 0.00 | 0.00 | 0.00 | 42 | 1006.3 |
| 20260507193422 | 51 | 330 | 0.0 | 8.0 | 0.00 | 0.00 | 0.00 | 39 | 1006.3 |
| 20260507192918 | 51 | 209 | 1.0 | 7.0 | 0.00 | 0.00 | 0.00 | 40 | 1006.4 |
| 20260507192418 | 51 | 279 | 1.0 | 12.0 | 0.00 | 0.00 | 0.00 | 39 | 1006.4 |
| 20260507191919 | 51 | 346 | 3.0 | 7.0 | 0.00 | 0.00 | 0.00 | 39 | 1006.3 |
| 20260507191424 | 51 | 343 | 4.0 | 7.0 | 0.00 | 0.00 | 0.00 | 39 | 1006.4 |
| 20260507190922 | 51 | 306 | 5.0 | 6.0 | 0.00 | 0.00 | 0.00 | 41 | 1006.4 |
| 20260507190421 | 51 | 345 | 2.0 | 5.0 | 0.00 | 0.00 | 0.00 | 43 | 1006.4 |
| 20260507185918 | 51 | 348 | 3.0 | 5.0 | 0.00 | 0.00 | 0.00 | 40 | 1006.4 |
| 20260507185424 | 51 | 266 | 2.0 | 4.0 | 0.00 | 0.00 | 0.00 | 43 | 1006.4 |
| 20260507184918 | 51 | 333 | 1.0 | 5.0 | 0.00 | 0.00 | 0.00 | 41 | 1006.4 |
| 20260507184421 | 51 | 306 | 2.0 | 5.0 | 0.00 | 0.00 | 0.00 | 41 | 1006.4 |
| 20260507183918 | 51 | 343 | 1.0 | 4.0 | 0.00 | 0.00 | 0.00 | 44 | 1006.5 |
| 20260507183421 | 52 | 306 | 0.0 | 7.0 | 0.00 | 0.00 | 0.00 | 37 | 1006.4 |
| 20260507182919 | 52 | 244 | 0.0 | 4.0 | 0.00 | 0.00 | 0.00 | 42 | 1006.5 |
| 20260507182418 | 52 | 240 | 1.0 | 7.0 | 0.00 | 0.00 | 0.00 | 42 | 1006.5 |
| 20260507181920 | 52 | 341 | 1.0 | 5.0 | 0.00 | 0.00 | 0.00 | 42 | 1006.4 |
| 20260507181424 | 51 | 284 | 0.0 | 6.0 | 0.00 | 0.00 | 0.00 | 42 | 1006.5 |
| 20260507180922 | 51 | 340 | 1.0 | 8.0 | 0.00 | 0.00 | 0.00 | 39 | 1006.6 |
| 20260507180428 | 51 | 274 | 1.0 | 4.0 | 0.00 | 0.00 | 0.00 | 46 | 1006.5 |
| 20260507175920 | 51 | 289 | 0.0 | 4.0 | 0.00 | 0.00 | 0.00 | 40 | 1006.5 |
| 20260507175424 | 51 | 345 | 0.0 | 4.0 | 0.00 | 0.00 | 0.00 | 38 | 1006.6 |
| 20260507174922 | 51 | 330 | 3.0 | 5.0 | 0.00 | 0.00 | 0.00 | 41 | 1006.5 |
| 20260507174417 | 51 | 328 | 1.0 | 7.0 | 0.00 | 0.00 | 0.00 | 47 | 1006.5 |
| 20260507173924 | 51 | 359 | 5.0 | 7.0 | 0.00 | 0.00 | 0.00 | 41 | 1006.6 |
| 20260507173417 | 51 | 224 | 4.0 | 6.0 | 0.00 | 0.00 | 0.00 | 40 | 1006.7 |
| 20260507172917 | 51 | 209 | 2.0 | 6.0 | 0.00 | 0.00 | 0.00 | 43 | 1006.6 |
| 20260507172417 | 51 | 257 | 2.0 | 7.0 | 0.00 | 0.00 | 0.00 | 43 | 1006.6 |
| 20260507171920 | 51 | 266 | 0.0 | 4.0 | 0.00 | 0.00 | 0.00 | 42 | 1006.7 |
| 20260507171418 | 51 | 241 | 0.0 | 4.0 | 0.00 | 0.00 | 0.00 | 41 | 1006.7 |
| 20260507170917 | 52 | 251 | 4.0 | 9.0 | 0.00 | 0.00 | 0.00 | 44 | 1006.8 |
| 20260507170421 | 52 | 238 | 2.0 | 5.0 | 0.00 | 0.00 | 0.00 | 41 | 1006.8 |
| 20260507165918 | 52 | 70 | 2.0 | 5.0 | 0.00 | 0.00 | 0.00 | 43 | 1006.9 |
| 20260507165417 | 52 | 316 | 1.0 | 11.0 | 0.00 | 0.00 | 0.00 | 48 | 1006.9 |
| 20260507164920 | 52 | 213 | 1.0 | 6.0 | 0.00 | 0.00 | 0.00 | 42 | 1007.0 |
| 20260507164417 | 52 | 345 | 0.0 | 5.0 | 0.00 | 0.00 | 0.00 | 44 | 1007.0 |
| 20260507163917 | 52 | 235 | 3.0 | 7.0 | 0.00 | 0.00 | 0.00 | 50 | 1007.0 |
| 20260507163418 | 52 | 239 | 2.0 | 3.0 | 0.00 | 0.00 | 0.00 | 45 | 1007.0 |
| 20260507162920 | 52 | 295 | 0.0 | 2.0 | 0.00 | 0.00 | 0.00 | 49 | 1007.1 |
| 20260507162418 | 51 | 291 | 1.0 | 5.0 | 0.00 | 0.00 | 0.00 | 49 | 1007.2 |
| 20260507161917 | 51 | 337 | 1.0 | 5.0 | 0.00 | 0.00 | 0.00 | 47 | 1007.3 |
| 20260507161420 | 51 | 339 | 4.0 | 4.0 | 0.00 | 0.00 | 0.00 | 47 | 1007.4 |
| 20260507160921 | 51 | 256 | 2.0 | 5.0 | 0.00 | 0.00 | 0.00 | 52 | 1007.4 |
| 20260507160420 | 51 | 176 | 0.0 | 5.0 | 0.00 | 0.00 | 0.00 | 52 | 1007.4 |
| 20260507155918 | 50 | 225 | 0.0 | 4.0 | 0.00 | 0.00 | 0.00 | 48 | 1007.5 |
| 20260507155417 | 50 | 335 | 0.0 | 5.0 | 0.00 | 0.00 | 0.00 | 51 | 1007.5 |
| 20260507154918 | 50 | 228 | 1.0 | 7.0 | 0.00 | 0.00 | 0.00 | 47 | 1007.7 |
| 20260507154417 | 50 | 249 | 0.0 | 7.0 | 0.00 | 0.00 | 0.00 | 53 | 1007.6 |
| 20260507153917 | 50 | 311 | 1.0 | 5.0 | 0.00 | 0.00 | 0.00 | 56 | 1007.6 |
| 20260507153417 | 50 | 237 | 0.0 | 6.0 | 0.00 | 0.00 | 0.00 | 46 | 1007.6 |
| 20260507152917 | 50 | 220 | 1.0 | 6.0 | 0.00 | 0.00 | 0.00 | 48 | 1007.7 |
| 20260507152417 | 49 | 239 | 0.0 | 7.0 | 0.00 | 0.00 | 0.00 | 55 | 1007.7 |
| 20260507151917 | 49 | 181 | 3.0 | 7.0 | 0.00 | 0.00 | 0.00 | 52 | 1007.7 |
| 20260507151417 | 49 | 214 | 1.0 | 5.0 | 0.00 | 0.00 | 0.00 | 58 | 1007.6 |
| 20260507150920 | 49 | 187 | 1.0 | 4.0 | 0.00 | 0.00 | 0.00 | 54 | 1007.8 |
| 20260507150420 | 48 | 180 | 4.0 | 7.0 | 0.00 | 0.00 | 0.00 | 51 | 1007.8 |
| 20260507145920 | 48 | 218 | 2.0 | 9.0 | 0.00 | 0.00 | 0.00 | 58 | 1007.7 |
| 20260507145420 | 48 | 224 | 1.0 | 8.0 | 0.00 | 0.00 | 0.00 | 55 | 1007.7 |
| 20260507144924 | 48 | 10 | 0.0 | 5.0 | 0.00 | 0.00 | 0.00 | 55 | 1007.7 |
| 20260507144417 | 48 | 195 | 0.0 | 5.0 | 0.00 | 0.00 | 0.00 | 60 | 1007.7 |
| 20260507143920 | 48 | 25 | 1.0 | 3.0 | 0.00 | 0.00 | 0.00 | 59 | 1007.6 |
| 20260507143421 | 48 | 210 | 0.0 | 5.0 | 0.00 | 0.00 | 0.00 | 58 | 1007.7 |
| 20260507142917 | 47 | 261 | 0.0 | 3.0 | 0.00 | 0.00 | 0.00 | 61 | 1007.7 |
| 20260507142423 | 47 | 262 | 0.0 | 3.0 | 0.00 | 0.00 | 0.00 | 56 | 1007.8 |